KDALKGTU

Guest
Details From KDAL - Dallas Love Fld
To KGTU - Georgetown Muni
Flight Number -
Tags generated
Created
Modified
Stats Distance 137 nm / 254 km
Max Altitude 12,400 ft / 3,780 m
Waypoints 3
Social Downloads 0
Likes 0
Share VATSIM

Download

Looking for another format? Having issues loading an existing format? Contact us
Advertisement - Login to hide

Notes

Basic altitude profile: - Ascent Rate: 2500ft/min - Ascent Speed: 100kts - Cruise Altitude: 1000ft - Cruise Speed: 420kts - Descent Rate: 1500ft/min - Descent Speed: 250kts Options: - Use NATs: yes - Use PACOTS: yes - Use low airways: yes - Use high airways: yes

Route

KDAL ACT KGTU

ID Type Via Altitude Latitude Longitude Leg Dist Tot Dist Heading (true) Name
O KDAL APT - 0 ft / 0 m 32.84753˚ -96.85186˚ - 0 nm - Dallas Love Fld
ACT VOR - 12,400 ft / 3,780 m 31.66233˚ -97.26903˚ 74 nm 74 nm 197° / 196° WACO VORTAC
O KGTU APT - 0 ft / 0 m 30.67878˚ -97.67949˚ 62 nm 136 nm 200° / 200° Georgetown Muni

Altitude Profile

Advertisement - Login to hide

KDAL

Details ICAO KDAL (DAL)
Name Dallas Love Fld
Region United States
Timezone America/Chicago (UTC-5.0)
Stats Elevation 487 ft / 148 m (AMSL)
Location 32.847529° -96.851864°
Runways 3
Magnetic Variation 3.274° E

METAR

KDAL 251853Z 05015KT 10SM -TSRA BKN044CB BKN055 BKN090 BKN250 26/18 A2995 RMK AO2 PK WND 04030/1828 SLP136 TSB14 OCNL LTGICCG TS OHD-NE-SE MOV SE TCU S-W P0000 T02560183

Decode

TAF

TAF AMD KDAL 251856Z 2519/2618 07015KT P6SM VCTS SCT050CB FM252300 14008KT P6SM SCT060 FM260300 18010KT P6SM VCTS BKN050CB FM260800 16011KT P6SM SCT080

Decode

Departure Runways

ID Width Length Bearing (true) Bearing (mag) Surface Threshold Offset Overrun Length
13L 151 ft / 46 m 7,757 ft / 2,364 m 135.77° 132.50° Concrete 0 ft / 0 m 200 ft / 61 m
13R 151 ft / 46 m 8,805 ft / 2,684 m 135.76° 132.49° Concrete 489 ft / 149 m 200 ft / 61 m
18 151 ft / 46 m 6,164 ft / 1,879 m 185.50° 182.23° Asphalt 0 ft / 0 m 200 ft / 61 m
31L 151 ft / 46 m 8,805 ft / 2,684 m 315.77° 312.50° Concrete 0 ft / 0 m 200 ft / 61 m
31R 151 ft / 46 m 7,757 ft / 2,364 m 315.78° 312.51° Concrete 0 ft / 0 m 200 ft / 61 m
36 151 ft / 46 m 6,164 ft / 1,879 m 5.50° 2.23° Asphalt 0 ft / 0 m 200 ft / 61 m

KGTU

Details ICAO KGTU (GTU)
Name Georgetown Muni
Region United States
Timezone America/Chicago (UTC-5.0)
Stats Elevation 790 ft / 241 m (AMSL)
Location 30.678783° -97.679490°
Runways 2
Magnetic Variation 3.766° E

METAR

KGTU 251856Z VRB06KT 10SM CLR 24/21 A2995 RMK AO2 SLP137 T02440206

Decode

TAF

Not found

Destination Runways

ID Width Length Bearing (true) Bearing (mag) Surface Threshold Offset Overrun Length
11 75 ft / 23 m 4,098 ft / 1,249 m 120.69° 116.92° Asphalt 0 ft / 0 m 0 ft / 0 m
18 100 ft / 30 m 5,016 ft / 1,529 m 183.55° 179.78° Asphalt 0 ft / 0 m 0 ft / 0 m
29 75 ft / 23 m 4,098 ft / 1,249 m 300.69° 296.92° Asphalt 0 ft / 0 m 0 ft / 0 m
36 100 ft / 30 m 5,016 ft / 1,529 m 3.55° 359.78° Asphalt 0 ft / 0 m 0 ft / 0 m